Home   Weather   Pickering   Past weeks

Flag for Canada Past Weather in Pickering, Ontario, Canada — Yesterday and Last 2 Weeks

Now
54 °F

More clouds than sun.


Feels Like: 52 °F
Forecast: 47 / 62 °F
Wind: 7 mph from East

Location: Toronto Buttonville

Current Time: Apr 26, 2017 at 11:40:20 am

Latest Report: Apr 26, 2017 at 11:00 am


Visibility: 15 mi

Pressure: 29.83 "Hg

Humidity: 88%

Dew Point: 50 °F

Location of PickeringLocation

Past Weather in Pickering — Graph

°F

Pickering Temperature Yesterday

Maximum temperature yesterday: 52 °F (at 6:34 pm)
Minimum temperature yesterday: 43 °F (at 2:00 am)
Average temperature yesterday: 47 °F

High & Low Weather Summary for the Past Weeks

 TemperatureHumidityPressure
High72 °F (Apr 16, 1:00 pm)100% (Apr 15, 1:29 pm)30.52 "Hg (Apr 15, 1:29 pm)
Low30 °F (Apr 18, 5:00 am)19% (Apr 14, 7:00 pm)29.69 "Hg (Apr 16, 12:00 pm)
Average48 °F69%30.09 "Hg
* Reported Apr 11 10:00 am — Apr 26 10:00 am, Pickering, Weather by CustomWeather, © 2017

Note: Actual official high and low records may vary slightly from our data, if they occured in-between our weather recording intervals... More about our weather records

Advertising

Pickering Weather History for the Previous 24 Hours

Scroll right to see more
 ConditionsComfort  
Time TempWeatherWind HumidityBarometerVisibility
10:00 am
Wed, Apr 26
52 °FMostly cloudy.10 mph88%29.83 "Hg15 mi
9:00 am52 °FLow clouds.14 mph88%29.83 "Hg15 mi
8:00 am50 °FLow clouds.12 mph88%29.82 "Hg15 mi
7:47 am50 °FLow clouds.14 mph88%29.82 "Hg15 mi
7:12 am50 °FBroken clouds.9 mph88%29.82 "Hg15 mi
7:00 am50 °FPartly sunny.10 mph88%29.81 "Hg15 mi
6:30 am50 °FMostly cloudy.8 mph88%29.83 "Hg15 mi
5:00 am50 °FLow clouds.9 mph88%29.83 "Hg15 mi
4:00 am50 °FPassing clouds.7 mph88%29.83 "Hg15 mi
3:00 am50 °FPartly cloudy.9 mph88%29.84 "Hg15 mi
2:00 am50 °FPassing clouds.10 mph88%29.86 "Hg15 mi
1:00 am52 °FPassing clouds.10 mph82%29.86 "Hg15 mi
12:00 am50 °FPassing clouds.8 mph88%29.87 "Hg15 mi
11:00 pm
Tue, Apr 25
52 °FPassing clouds.14 mph82%29.88 "Hg15 mi
10:00 pm52 °FPassing clouds.10 mph82%29.89 "Hg15 mi
9:00 pm52 °FPartly cloudy.13 mph82%29.89 "Hg15 mi
8:00 pm52 °FMostly cloudy.12 mph88%29.90 "Hg15 mi
7:00 pm52 °FPartly sunny.12 mph82%29.91 "Hg15 mi
6:34 pm52 °FPartly sunny.12 mph82%29.93 "Hg15 mi
6:00 pm50 °FMostly cloudy.14 mph88%29.93 "Hg15 mi
5:00 pm50 °FLow clouds.17 mph88%29.94 "Hg15 mi
4:00 pm48 °FLow clouds.21 mph87%29.96 "Hg15 mi
3:00 pm48 °FLow clouds.17 mph94%29.97 "Hg15 mi
2:00 pm48 °FLight rain. Mostly cloudy.17 mph94%29.98 "Hg15 mi
1:00 pm46 °FLight rain. Mostly cloudy.21 mph93%30.01 "Hg12 mi
12:33 pm46 °FLight rain. Low clouds.17 mph93%30.02 "Hg10 mi
12:00 pm46 °FDrizzle. Fog.15 mph93%30.03 "Hg4 mi
11:31 am45 °FDrizzle. Fog.15 mph100%30.03 "Hg2 mi
11:00 am45 °FDrizzle. Fog.16 mph93%30.04 "Hg6 mi
Weather by CustomWeather, © 2017

See weather overviewHow to use our weather pages